Location: Lake Sonoma
(38.7200°N, 123.0564°W)
Time: 15:37:35
(UTC-08:00)

ISS - Visible Passes

Search period start: 19 December 2014 00:00
Search period end: 29 December 2014 00:00
Orbit: 404 x 415 km, 51.6° (Epoch: 19 December)

Date Brightness Start Highest point End Pass type
(mag) Time Alt. Az. Time Alt. Az. Time Alt. Az.
21 Dec -1.1 18:01:43 10° NNW 18:03:20 13° NNE 18:03:28 13° NNE visible
22 Dec -1.1 18:46:36 10° NW 18:47:44 18° NNW 18:47:44 18° NNW visible
23 Dec -1.8 17:55:58 10° NNW 17:58:31 20° NNE 17:59:19 19° NE visible
23 Dec 0.1 19:32:05 10° WNW 19:32:06 10° WNW 19:32:06 10° WNW visible
24 Dec -3.0 18:41:06 10° NW 18:43:51 57° NNW 18:43:51 57° NNW visible
25 Dec -2.8 17:50:12 10° NW 17:53:20 40° NNE 17:55:51 14° E visible
25 Dec -0.3 19:27:15 10° W 19:28:39 17° WSW 19:28:39 17° WSW visible
26 Dec -1.9 18:35:43 10° WNW 18:38:47 37° SW 18:41:03 16° SSE visible
27 Dec -3.2 17:44:29 10° NW 17:47:46 78° SW 17:51:01 10° SE visible
28 Dec -0.1 18:30:59 10° W 18:32:49 14° SW 18:34:39 10° SSW visible
